Regional Weather Roundup
Issued by NWS

Home | Current Version | Previous Version | Graphics & Text | Print | Product List | Glossary On
Versions: 1 2 3 4 5 6 7 8 9 10 11 12 13 14 15 16 17 18 19 20 21 22 23 24 25 26 27 28 29 30 31 32 33 34 35 36 37 38 39 40 41 42 43 44 45 46 47 48 49 50
000
ASUS43 KDMX 260601
RWRIA

WEATHER ROUNDUP FOR IOWA
NATIONAL WEATHER SERVICE DES MOINES IA
100 AM CDT SUN MAR 26 2017

NOTE: "FAIR" INDICATES FEW OR NO CLOUDS BELOW 12,000 FEET WITH NO
SIGNIFICANT WEATHER AND/OR OBSTRUCTIONS TO VISIBILITY.

* - THESE STATIONS ARE NOT NWS STATIONS...THUS NOT UNDER NWS
QUALITY CONTROL.  THEY ALSO DO NOT REPORT WEATHER SUCH
AS PRECIPITATION OR FOG.

IAZ001>003-012>014-020>022-031>034-043>046-260700-
   NORTHWEST IOWA

CITY           SKY/WX    TMP DP  RH WIND       PRES   REMARKS
CARROLL *      CLOUDY    39  39 100 NE9       29.89F FOG     WCI  33
CHEROKEE *     CLOUDY    37  37 100 NE5       29.92F FOG     WCI  34
LE MARS *      CLOUDY    39  37  93 NE5       29.95F FOG
ORANGE CITY *  CLOUDY    37  37 100 E6        29.93F FOG     WCI  33
SHELDON *      CLOUDY    37  37 100 E9        29.92F FOG     WCI  31
SIOUX CITY     CLOUDY    39  39 100 NE3       29.94F
6HR MIN TEMP:  39; 6HR MAX TEMP:  41;

SPENCER        CLOUDY    37  37 100 E13       29.93F FOG     WCI  29
6HR MIN TEMP:  37; 6HR MAX TEMP:  38;

STORM LAKE *   FOG       37  37 100 NE9       29.91F VSB 1/4 WCI  31
$$

IAZ055>058-069>071-079>083-090>094-260700-
   SOUTHWEST IOWA

CITY           SKY/WX    TMP DP  RH WIND       PRES   REMARKS
ATLANTIC *     CLOUDY    41  41 100 NE8       29.88F
AUDUBON *      CLOUDY    39  37  93 N7        29.89F FOG     WCI  34
CLARINDA *     CLOUDY    41  41 100 NE6       29.89F FOG
COUNCIL BLFS * CLOUDY    39  39 100 N7        29.90F WCI  34
CRESTON *      CLOUDY    41  41 100 N9        29.87F
HARLAN  *      CLOUDY    39  39 100 NE9       29.92F WCI  33
LAMONI         CLOUDY    42  41  96 N6        29.85F FOG
6HR MIN TEMP:  42; 6HR MAX TEMP:  44;

RED OAK *      CLOUDY    41  41 100 NE7       29.88F
SHENANDOAH *   CLOUDY    41  41 100 NW5       29.90S
$$

IAZ047>049-059>061-072>074-084-260700-
   CENTRAL IOWA

CITY           SKY/WX    TMP DP  RH WIND       PRES   REMARKS
AMES           CLOUDY    40  40 100 N7        29.89F FOG
6HR MIN TEMP:  40; 6HR MAX TEMP:  41;

ANKENY *       CLOUDY    41  39  93 N9        29.88F FOG
BOONE *        FOG       39  39 100 NE10      29.87F VSB 3/4 WCI  32
CHARITON *     FOG       43  43 100 N12       29.84F VSB 1
DES MOINES     DRIZZLE   42  41  96 NE10      29.87F FOG
6HR MIN TEMP:  42; 6HR MAX TEMP:  44; 6HR PCP: TRACE;

GRINNELL*      FOG       41  40  98 N8        29.87F VSB 1
MARSHALLTOWN   CLOUDY    40  40 100 NE10      29.88F FOG     WCI  33
6HR MIN TEMP:  40; 6HR MAX TEMP:  41;

NEWTON *       FOG       41  41 100 NE12      29.86F VSB 1/4
PELLA *        DRZL/FOG  42  42  99 N6        29.87F VSB 1
PERRY *        CLOUDY    40  39  97 N7        29.89F FOG
$$

IAZ004>006-015-016-023>025-035-036-260700-
   NORTH CENTRAL IOWA

CITY           SKY/WX    TMP DP  RH WIND       PRES   REMARKS
ALGONA *       DRIZZLE   37  37 100 NE9       29.93F WCI  31
CLARION *      CLOUDY    37  37 100 NE8G15    29.91F FOG     WCI  31
ESTHERVILLE    CLOUDY    36  36 100 NE8       29.94F FOG     WCI  30
6HR MIN TEMP:  36; 6HR MAX TEMP:  37;

FORT DODGE *   CLOUDY    37  36  93 N6        29.92F WCI  33
MASON CITY     CLOUDY    37  36  96 NE8       29.94F FOG     WCI  31
6HR MIN TEMP:  37; 6HR MAX TEMP:  38; 6HR PCP: TRACE;

FOREST CITY *  CLOUDY    36  36 100 NE6       29.93F FOG     WCI  31
WEBSTER CITY * CLOUDY    39  37  93 NE7       29.88F FOG     WCI  34
IOWA FALLS *   FOG       39  38  97 NE6       29.91F VSB 1/2 WCI  35
$$

IAZ007>011-017>019-026>030-037>042-050>054-066-260700-
   NORTHEAST IOWA

CITY           SKY/WX    TMP DP  RH WIND       PRES   REMARKS
CEDAR RAPIDS   CLOUDY    42  50 100 NE10      29.85S FOG
6HR MIN TEMP:  42; 6HR MAX TEMP:  44; 6HR PCP:  0.04;

CHARLES CITY * FOG       37  37 100 NE12      29.92F VSB 1/2 WCI  30
CLINTON *      LGT RAIN  44  43  96 E14       29.87F FOG
DECORAH *      LGT RAIN  37  37 100 NE10      29.92F WCI  30
DUBUQUE        FOG       40  40 100 NE16      29.88F VSB 3/4 WCI  31
6HR MIN TEMP:  40; 6HR MAX TEMP:  40; 6HR PCP:  0.02;

MONTICELLO *   CLOUDY    41  41 100 NE10      29.88S FOG
OELWEIN *      MIX PCPN  39  39 100 NE13      29.89F WCI  32
WATERLOO       CLOUDY    39  38  96 NE9       29.90F FOG     WCI  33
6HR MIN TEMP:  39; 6HR MAX TEMP:  40; 6HR PCP: TRACE;

$$

IAZ064-065-067-068-078-260700-
   EAST CENTRAL IOWA

CITY           SKY/WX    TMP DP  RH WIND       PRES   REMARKS
DAVENPORT      CLOUDY    45  45 100 E10       29.86F FOG
6HR MIN TEMP:  44; 6HR MAX TEMP:  48; 6HR PCP:  0.02;

IOWA CITY      CLOUDY    45  43  93 NE7       29.86F FOG
6HR MIN TEMP:  45; 6HR MAX TEMP:  48; 6HR PCP:  0.02;

MUSCATINE *    FOG       46  46 100 NE12      29.84F VSB 1
QUAD CITIES    CLOUDY    47  45  93 E8        29.84F FOG
6HR MIN TEMP:  47; 6HR MAX TEMP:  50; 6HR PCP:  0.01;

$$

IAZ062-063-075>077-085>089-095>099-260700-
   SOUTHEAST IOWA

CITY           SKY/WX    TMP DP  RH WIND       PRES   REMARKS
BURLINGTON     MOCLDY    57  56  96 E7        29.79F
6HR MIN TEMP:  57; 6HR MAX TEMP:  60; 6HR PCP:  0.08;

FAIRFIELD *    FOG       46  46 100 NE13      29.80F VSB 3/4
FORT MADISON * CLOUDY    57  57 100 E8        29.79F
KEOKUK *       CLOUDY    57  55  94 SE7       29.78S
OSKALOOSA *    LGT RAIN  44  44  99 N9        29.84F VSB 3/4
OTTUMWA        FOG       46  46 100 N10       29.83S VSB 1/2
6HR MIN TEMP:  46; 6HR MAX TEMP:  47; 6HR PCP:  0.02;

WASHINGTON *   FOG       45  45 100 NE15      29.83F VSB 1/4
$$

ABBREVIATIONS USED IN REMARKS
   TC - TEMPERATURES IN CELSIUS
  WCI - WIND CHILL INDEX
   HX - HEAT INDEX
  VSB - VISIBILITY
$$





USA.gov is the U.S. government's official web portal to all federal, state and local government web resources and services.